FW9660 Weather Reports


time (UTC)temp
C
wind
direction
speed
KPH
gust
KPH
rain 1hr
cm
rain 24hr
cm
rain mn
cm
humidity
%
barometer
mb
20260507125058 16 261 4.8 9.7 0.00 0.00 0.00 89 1017.4
20260507124558 16 261 6.4 9.7 0.00 0.00 0.00 89 1017.3
20260507124058 16 250 4.8 9.7 0.00 0.00 0.00 89 1017.4
20260507123558 16 261 4.8 9.7 0.00 0.00 0.00 89 1017.4
20260507123112 16 259 4.8 9.7 0.00 0.00 0.00 89 1017.5
20260507122559 16 236 4.8 9.7 0.00 0.00 0.00 89 1017.5
20260507122059 16 257 4.8 11.3 0.00 0.00 0.00 89 1017.5
20260507121602 16 265 6.4 11.3 0.00 0.00 0.00 89 1017.5
20260507121058 16 265 4.8 11.3 0.00 0.00 0.00 90 1017.5
20260507120557 16 252 4.8 11.3 0.00 0.00 0.00 89 1017.5
20260507120058 16 265 4.8 9.7 0.00 0.00 0.00 90 1017.6
20260507115558 16 261 4.8 9.7 0.00 0.00 0.00 89 1017.6
20260507115057 16 257 6.4 9.7 0.00 0.00 0.00 90 1017.7
20260507114601 16 259 4.8 9.7 0.00 0.00 0.00 90 1017.7
20260507114057 16 269 4.8 9.7 0.00 0.00 0.00 90 1017.8
20260507113558 16 236 4.8 9.7 0.00 0.00 0.00 90 1017.9
20260507113055 16 261 4.8 9.7 0.00 0.00 0.00 90 1017.9
20260507112557 16 255 4.8 11.3 0.00 0.00 0.00 90 1018.0
20260507112058 16 241 4.8 11.3 0.00 0.00 0.00 90 1018.1
20260507111559 16 225 4.8 11.3 0.00 0.00 0.00 90 1018.1
20260507111056 16 265 4.8 11.3 0.00 0.00 0.00 90 1018.2
20260507110600 16 265 4.8 9.7 0.00 0.00 0.00 91 1018.2
20260507110057 16 252 6.4 9.7 0.00 0.00 0.00 91 1018.2
20260507105558 16 245 4.8 8.0 0.00 0.00 0.00 91 1018.3
20260507105057 16 236 4.8 9.7 0.00 0.00 0.00 91 1018.3
20260507104601 16 261 4.8 9.7 0.00 0.00 0.00 91 1018.3
20260507104101 16 249 4.8 9.7 0.00 0.00 0.00 91 1018.3
20260507103600 17 265 4.8 9.7 0.00 0.00 0.00 92 1018.5
20260507103058 17 252 4.8 9.7 0.00 0.00 0.00 92 1018.5
20260507102559 17 265 4.8 8.0 0.00 0.00 0.00 92 1018.5
20260507102100 17 257 4.8 9.7 0.00 0.00 0.00 92 1018.5
20260507101554 17 257 4.8 9.7 0.00 0.00 0.00 92 1018.5
20260507101100 17 230 3.2 9.7 0.00 0.00 0.00 92 1018.5
20260507100557 17 265 4.8 9.7 0.00 0.00 0.00 93 1018.6
20260507100059 17 254 4.8 9.7 0.00 0.00 0.00 93 1018.7
20260507095557 17 232 4.8 9.7 0.00 0.00 0.00 93 1018.6
20260507095057 17 261 4.8 9.7 0.00 0.00 0.00 93 1018.6
20260507094557 17 259 4.8 9.7 0.00 0.00 0.00 93 1018.7
20260507094101 17 279 4.8 9.7 0.00 0.00 0.00 93 1018.7
20260507093557 17 252 4.8 9.7 0.00 0.00 0.00 93 1018.7
20260507093056 17 249 4.8 9.7 0.00 0.00 0.00 93 1018.7
20260507092558 17 252 4.8 9.7 0.00 0.00 0.00 93 1018.7
20260507092057 17 236 4.8 9.7 0.00 0.00 0.00 93 1018.8
20260507091558 17 261 4.8 6.4 0.00 0.00 0.00 93 1018.8
20260507091059 17 265 4.8 9.7 0.00 0.00 0.00 93 1018.8
20260507090558 17 242 4.8 9.7 0.00 0.00 0.00 93 1018.8
20260507090104 16 265 4.8 9.7 0.00 0.00 0.00 93 1018.9
20260507085557 16 257 4.8 9.7 0.00 0.00 0.00 93 1019.0
20260507085057 16 265 4.8 9.7 0.00 0.00 0.00 93 1019.0
20260507084557 16 261 4.8 9.7 0.00 0.00 0.00 93 1018.9
20260507084057 16 252 4.8 9.7 0.00 0.00 0.00 93 1018.9
20260507083600 17 243 4.8 9.7 0.00 0.00 0.00 93 1018.9
20260507083058 17 255 4.8 9.7 0.00 0.00 0.00 93 1019.0
20260507082559 17 259 4.8 9.7 0.00 0.00 0.00 93 1018.9
20260507082056 17 245 4.8 8.0 0.00 0.00 0.00 93 1019.0
20260507081557 17 255 4.8 6.4 0.00 0.00 0.00 93 1018.9
20260507081101 17 265 3.2 9.7 0.00 0.00 0.00 93 1018.9
20260507080559 17 259 4.8 9.7 0.00 0.00 0.00 93 1018.9
20260507080120 17 255 4.8 9.7 0.00 0.00 0.00 94 1018.9
20260507075559 18 255 4.8 9.7 0.00 0.00 0.00 94 1019.1
20260507075057 18 241 4.8 9.7 0.00 0.00 0.00 94 1019.0
20260507074611 18 255 4.8 8.0 0.00 0.00 0.00 94 1019.0
20260507074057 18 254 3.2 6.4 0.00 0.00 0.00 94 1019.0
20260507073601 18 250 3.2 6.4 0.00 0.00 0.00 94 1018.9
20260507073111 18 259 3.2 6.4 0.00 0.00 0.00 94 1018.9
20260507072559 17 252 3.2 6.4 0.00 0.00 0.00 94 1018.8
20260507072057 17 216 3.2 4.8 0.00 0.00 0.00 94 1018.8
20260507071604 17 257 3.2 6.4 0.00 0.00 0.00 94 1018.6
20260507071057 17 245 3.2 6.4 0.00 0.00 0.00 93 1018.5
20260507070558 17 254 3.2 6.4 0.00 0.00 0.00 93 1018.4
20260507070110 17 255 3.2 6.4 0.00 0.00 0.00 93 1018.3
20260507065601 17 236 3.2 6.4 0.00 0.00 0.00 93 1018.2
20260507065057 17 268 3.2 6.4 0.00 0.00 0.00 93 1018.1
20260507064631 17 259 3.2 6.4 0.00 0.00 0.00 93 1018.1
20260507064101 18 259 3.2 4.8 0.00 0.00 0.00 93 1018.0
20260507063558 18 249 3.2 4.8 0.00 0.00 0.00 93 1018.0
20260507063117 18 265 3.2 4.8 0.00 0.00 0.00 93 1017.9
20260507062557 18 257 3.2 6.4 0.00 0.00 0.00 93 1017.9
20260507062057 18 259 3.2 6.4 0.00 0.00 0.00 92 1017.8
20260507061559 18 257 3.2 4.8 0.00 0.00 0.00 93 1017.6
20260507061056 18 232 3.2 4.8 0.00 0.00 0.00 92 1017.6
20260507060559 18 221 3.2 4.8 0.00 0.00 0.00 93 1017.5
20260507060115 19 245 3.2 4.8 0.00 0.00 0.00 93 1017.5
20260507055557 19 257 3.2 4.8 0.00 0.00 0.00 93 1017.4
20260507055056 19 249 3.2 4.8 0.00 0.00 0.00 93 1017.4
20260507054609 19 257 1.6 4.8 0.00 0.00 0.00 92 1017.3
20260507054058 19 232 1.6 4.8 0.00 0.00 0.00 92 1017.2
20260507053557 20 238 1.6 4.8 0.00 0.00 0.00 92 1017.1
20260507053106 20 227 1.6 4.8 0.00 0.00 0.00 92 1017.1
20260507052557 20 238 1.6 4.8 0.00 0.00 0.00 92 1017.1
20260507052057 20 249 1.6 4.8 0.00 0.00 0.00 92 1017.0
20260507051607 20 265 1.6 4.8 0.00 0.00 0.00 92 1016.9
20260507051056 20 0 1.6 3.2 0.00 0.00 0.00 92 1016.8
20260507050557 20 232 0.0 3.2 0.00 0.00 0.00 92 1016.8
20260507050057 20 265 1.6 4.8 0.00 0.00 0.00 91 1016.8
20260507045557 21 232 1.6 6.4 0.00 0.00 0.00 91 1016.8
20260507045057 21 146 1.6 6.4 0.00 0.00 0.00 91 1016.6
20260507044600 21 158 3.2 6.4 0.00 0.00 0.00 91 1016.6
20260507044056 21 133 1.6 6.4 0.00 0.00 0.00 91 1016.6
20260507043556 21 120 3.2 6.4 0.00 0.00 0.00 91 1016.5
20260507043100 21 120 3.2 6.4 0.00 0.00 0.00 91 1016.5
20260507042559 21 128 4.8 6.4 0.00 0.00 0.00 91 1016.4
20260507042056 21 117 3.2 12.9 0.00 0.00 0.00 91 1016.5
20260507041559 22 120 4.8 12.9 0.00 0.00 0.00 91 1016.5
20260507041057 22 118 4.8 11.3 0.00 0.00 0.00 90 1016.4
20260507040558 22 121 4.8 11.3 0.00 0.00 0.00 90 1016.3
20260507040057 22 117 4.8 11.3 0.00 0.00 0.00 90 1016.3
20260507035557 22 131 4.8 11.3 0.00 0.00 0.00 90 1016.2
20260507035058 22 123 4.8 11.3 0.00 0.00 0.00 90 1016.2
20260507034600 22 93 4.8 11.3 0.00 0.00 0.00 90 1016.2
20260507034056 22 162 6.4 11.3 0.00 0.00 0.00 89 1016.1
20260507033557 22 88 3.2 11.3 0.00 0.00 0.00 90 1016.1
20260507033101 22 120 3.2 12.9 0.00 0.00 0.00 89 1016.1
20260507032558 22 105 3.2 12.9 0.00 0.00 0.00 89 1016.1
20260507032056 23 130 4.8 12.9 0.00 0.00 0.00 88 1016.1
20260507031558 23 93 4.8 9.7 0.00 0.00 0.00 88 1016.2
20260507031057 23 26 3.2 9.7 0.00 0.00 0.00 89 1016.2
20260507030556 23 93 3.2 9.7 0.00 0.00 0.00 88 1016.1
20260507030058 23 85 3.2 9.7 0.00 0.00 0.00 88 1016.0
20260507025556 23 88 3.2 9.7 0.00 0.00 0.00 88 1015.9
20260507025057 23 115 3.2 9.7 0.00 0.00 0.00 88 1015.9
20260507024601 23 46 1.6 8.0 0.00 0.00 0.00 88 1015.9
20260507024058 23 56 3.2 9.7 0.00 0.00 0.00 88 1015.9
20260507023557 23 93 1.6 9.7 0.00 0.00 0.00 88 1015.9
20260507023100 23 117 1.6 9.7 0.00 0.00 0.00 87 1015.9
20260507022557 23 111 3.2 11.3 0.00 0.00 0.00 87 1015.9
20260507022057 23 41 3.2 12.9 0.00 0.00 0.00 88 1015.9
20260507021555 23 120 6.4 12.9 0.00 0.00 0.00 87 1015.9
20260507021057 23 55 4.8 11.3 0.00 0.00 0.00 87 1015.9
20260507020557 23 76 3.2 14.5 0.00 0.00 0.00 87 1015.9
20260507020118 24 11 4.8 14.5 0.00 0.00 0.00 86 1015.9
20260507015557 24 78 6.4 14.5 0.00 0.00 0.00 85 1015.8
20260507015057 25 51 4.8 14.5 0.00 0.00 0.00 85 1015.8
20260507014601 25 83 3.2 12.9 0.00 0.00 0.00 83 1015.8
20260507014057 25 93 3.2 12.9 0.00 0.00 0.00 85 1015.8
20260507013557 25 34 4.8 12.9 0.00 0.00 0.00 83 1015.8
20260507013057 26 108 3.2 9.7 0.00 0.00 0.00 83 1015.8
20260507012559 25 47 3.2 9.7 0.00 0.00 0.00 81 1015.7
20260507012057 25 110 3.2 9.7 0.00 0.00 0.00 81 1015.7
20260507011554 25 17 3.2 11.3 0.00 0.00 0.00 81 1015.7
20260507011057 25 109 3.2 11.3 0.00 0.00 0.00 75 1015.7
20260507010558 25 128 3.2 11.3 0.00 0.00 0.00 82 1015.8
20260507010110 25 83 3.2 11.3 0.00 0.00 0.00 84 1015.7
20260507005557 25 121 3.2 9.7 0.00 0.00 0.00 85 1015.7
20260507005057 25 102 3.2 9.7 0.00 0.00 0.00 84 1015.8
20260507004556 25 0 1.6 9.7 0.00 0.00 0.00 84 1015.8
20260507004057 25 26 3.2 9.7 0.00 0.00 0.00 82 1015.9
20260507003557 25 39 3.2 9.7 0.00 0.00 0.00 81 1015.9
20260507003058 26 38 3.2 11.3 0.00 0.00 0.00 81 1015.8
20260507002557 26 70 4.8 11.3 0.00 0.00 0.00 80 1015.8
20260507002057 26 80 1.6 6.4 0.00 0.00 0.00 76 1015.9
20260507001603 26 9 1.6 6.4 0.00 0.00 0.00 71 1015.9
20260507001056 26 9 1.6 6.4 0.00 0.00 0.00 77 1015.9
20260507000559 26 80 1.6 6.4 0.00 0.00 0.00 77 1016.0
20260507000056 26 64 3.2 6.4 0.00 0.00 0.00 63 1016.0
20260506235557 26 9 0.0 6.4 0.00 0.00 0.00 66 1016.0
20260506235057 26 0 1.6 6.4 0.00 0.00 0.00 66 1016.1
20260506234600 26 144 1.6 6.4 0.00 0.00 0.00 70 1016.3
20260506234057 26 132 3.2 9.7 0.00 0.00 0.00 73 1016.2
20260506233557 25 139 3.2 9.7 0.00 0.00 0.00 74 1016.4
20260506233100 26 56 1.6 9.7 0.00 0.00 0.00 79 1016.4
20260506232600 26 82 3.2 11.3 0.00 0.00 0.00 79 1016.6
20260506232057 26 98 3.2 12.9 0.00 0.00 0.00 80 1016.6
20260506231609 26 83 4.8 12.9 0.00 0.00 0.00 80 1016.6
20260506231057 26 22 1.6 11.3 0.00 0.00 0.00 79 1016.7
20260506230556 26 113 4.8 11.3 0.00 0.00 0.00 71 1016.6
20260506230111 26 17 3.2 12.9 0.00 0.00 0.00 76 1016.6
20260506225556 26 51 3.2 12.9 0.00 0.00 0.00 76 1016.6
20260506225056 26 106 4.8 12.9 0.00 0.00 0.00 76 1016.8
20260506224602 26 72 4.8 14.5 0.00 0.00 0.00 78 1016.8
20260506224056 25 51 3.2 14.5 0.00 0.00 0.00 82 1016.6
20260506223556 25 113 6.4 12.9 0.00 0.00 0.00 80 1016.7
20260506223100 25 126 4.8 17.7 0.00 0.00 0.00 80 1016.8
20260506222557 25 111 3.2 17.7 0.00 0.00 0.00 85 1016.7
20260506222102 25 93 4.8 17.7 0.00 0.00 0.00 84 1016.8
20260506221631 25 30 4.8 12.9 0.00 0.00 0.00 84 1016.8
20260506221056 25 32 4.8 12.9 0.00 0.00 0.00 83 1016.8
20260506220557 25 59 3.2 16.1 0.00 0.00 0.00 84 1017.0
20260506220122 25 51 4.8 16.1 0.00 0.00 0.00 85 1017.1
20260506215556 25 123 4.8 14.5 0.00 0.00 0.00 84 1017.1
20260506215056 25 107 4.8 14.5 0.00 0.00 0.00 86 1017.2
20260506214601 25 149 4.8 14.5 0.00 0.00 0.00 85 1017.3
20260506214056 25 46 3.2 16.1 0.00 0.00 0.00 85 1017.5
20260506213556 24 9 6.4 16.1 0.00 0.00 0.00 85 1017.3
20260506213110 25 126 4.8 12.9 0.00 0.00 0.00 84 1017.3
20260506212556 25 85 4.8 12.9 0.00 0.00 0.00 86 1017.2
20260506212059 25 9 4.8 12.9 0.00 0.00 0.00 84 1017.2
20260506211559 25 346 4.8 14.5 0.00 0.00 0.00 84 1017.3
20260506211057 25 117 4.8 14.5 0.00 0.00 0.00 85 1017.3
20260506210557 25 151 4.8 14.5 0.00 0.00 0.00 84 1017.3
20260506210105 25 124 3.2 11.3 0.00 0.00 0.00 83 1017.2
20260506205559 25 132 3.2 11.3 0.00 0.00 0.00 83 1017.2
20260506205058 25 68 3.2 11.3 0.00 0.00 0.00 82 1017.3
20260506204607 25 66 4.8 14.5 0.00 0.00 0.00 80 1017.4
20260506204058 26 38 4.8 14.5 0.00 0.00 0.00 80 1017.5
20260506203557 26 341 4.8 14.5 0.00 0.00 0.00 79 1017.5
20260506203057 25 9 4.8 14.5 0.00 0.00 0.00 79 1017.3
20260506202557 25 106 4.8 14.5 0.00 0.00 0.00 80 1017.4
20260506202058 25 47 3.2 9.7 0.00 0.00 0.00 78 1017.4
20260506201557 25 108 3.2 11.3 0.00 0.00 0.00 79 1017.4
20260506201057 25 221 3.2 11.3 0.00 0.00 0.00 77 1017.5
20260506200558 25 0 4.8 12.9 0.00 0.00 0.00 78 1017.5
20260506200059 25 61 4.8 12.9 0.00 0.00 0.00 81 1017.5
20260506195557 25 67 4.8 12.9 0.00 0.00 0.00 81 1017.4
20260506195057 25 86 3.2 11.3 0.00 0.00 0.00 80 1017.3
20260506194608 25 59 4.8 11.3 0.00 0.00 0.00 79 1017.4
20260506194058 25 28 4.8 12.9 0.00 0.00 0.00 79 1017.5
20260506193558 25 325 4.8 12.9 0.00 0.00 0.00 83 1017.3
20260506193116 24 20 3.2 9.7 0.00 0.00 0.00 81 1017.3
20260506192559 24 342 1.6 9.7 0.00 0.00 0.00 83 1017.5
20260506192058 23 54 3.2 9.7 0.00 0.00 0.00 83 1017.4
20260506191617 23 43 4.8 9.7 0.00 0.00 0.00 82 1017.3
20260506191058 23 17 4.8 11.3 0.00 0.00 0.00 82 1017.3
20260506190558 23 61 4.8 11.3 0.00 0.00 0.00 83 1017.4
20260506190058 24 39 4.8 12.9 0.00 0.00 0.00 83 1017.4
20260506185557 24 9 3.2 12.9 0.00 0.00 0.00 82 1017.4
20260506185057 24 9 4.8 12.9 0.00 0.00 0.00 81 1017.5
20260506184622 24 46 3.2 12.9 0.00 0.00 0.00 80 1017.5
20260506184058 24 31 3.2 12.9 0.00 0.00 0.00 81 1017.4
20260506183601 24 41 3.2 8.0 0.00 0.00 0.00 82 1017.4
20260506183104 24 51 3.2 8.0 0.00 0.00 0.00 81 1017.3
20260506182558 24 64 3.2 6.4 0.00 0.00 0.00 82 1017.2
20260506182057 23 137 3.2 9.7 0.00 0.00 0.00 82 1017.1
20260506181559 23 205 3.2 9.7 0.00 0.00 0.00 82 1017.1
20260506181057 23 102 3.2 8.0 0.00 0.00 0.00 82 1017.0
20260506180558 23 72 3.2 6.4 0.00 0.00 0.00 83 1017.1
20260506180058 23 99 3.2 6.4 0.00 0.00 0.00 82 1017.1
20260506175557 23 80 3.2 6.4 0.00 0.00 0.00 82 1016.9
20260506175058 23 80 1.6 6.4 0.00 0.00 0.00 83 1017.0
20260506174555 23 19 1.6 6.4 0.00 0.00 0.00 83 1017.0
20260506174057 23 9 3.2 9.7 0.00 0.00 0.00 82 1016.8
20260506173558 23 93 3.2 9.7 0.00 0.00 0.00 84 1016.8
20260506173056 22 26 3.2 6.4 0.00 0.00 0.00 85 1016.8
20260506172557 22 9 1.6 4.8 0.00 0.00 0.00 87 1016.6
20260506172058 21 9 0.0 4.8 0.00 0.00 0.00 87 1016.5
20260506171607 21 93 1.6 6.4 0.00 0.00 0.00 89 1016.5
20260506171058 21 309 3.2 8.0 0.00 0.00 0.00 91 1016.5
20260506170558 20 219 4.8 8.0 0.00 0.00 0.00 90 1016.4
20260506170059 20 232 4.8 8.0 0.00 0.00 0.00 90 1016.4
20260506165557 20 224 4.8 11.3 0.00 0.00 0.00 90 1016.4
20260506165058 19 211 6.4 11.3 0.00 0.00 0.00 90 1016.3
20260506164557 19 203 6.4 11.3 0.00 0.00 0.00 90 1016.3
20260506164057 18 211 6.4 9.7 0.00 0.00 0.00 90 1016.3
20260506163557 18 209 6.4 12.9 0.00 0.00 0.00 90 1016.1
20260506163107 18 214 6.4 12.9 0.00 0.00 0.00 90 1016.0
20260506162559 18 202 8.0 12.9 0.00 0.00 0.00 90 1015.8
20260506162100 18 210 8.0 12.9 0.00 0.00 0.00 90 1015.8
20260506161557 17 216 8.0 12.9 0.00 0.00 0.00 90 1015.8
20260506161057 17 202 8.0 12.9 0.00 0.00 0.00 90 1015.7
20260506160558 17 200 8.0 12.9 0.00 0.00 0.00 91 1015.7
20260506160108 17 202 8.0 12.9 0.00 0.00 0.00 91 1015.7
20260506155557 17 218 8.0 12.9 0.00 0.00 0.00 91 1015.5
20260506155057 17 212 8.0 12.9 0.00 0.00 0.00 91 1015.4
20260506154558 17 227 9.7 12.9 0.00 0.00 0.00 92 1015.3
20260506154100 17 221 8.0 12.9 0.00 0.00 0.00 92 1015.3
20260506153558 17 221 8.0 11.3 0.00 0.00 0.00 92 1015.3
20260506153057 17 209 8.0 11.3 0.00 0.00 0.00 92 1015.4
20260506152557 17 231 6.4 11.3 0.00 0.00 0.00 92 1015.4
20260506152057 17 227 6.4 11.3 0.00 0.00 0.00 92 1015.4
20260506151558 17 221 8.0 11.3 0.00 0.00 0.00 92 1015.4
20260506151057 17 218 8.0 11.3 0.00 0.00 0.00 92 1015.2
20260506150557 17 223 8.0 11.3 0.00 0.00 0.00 92 1015.2
20260506150056 17 214 6.4 11.3 0.00 0.00 0.00 92 1015.1
20260506145557 17 208 6.4 11.3 0.00 0.00 0.00 92 1015.1
20260506145058 17 223 6.4 11.3 0.00 0.00 0.00 92 1015.1
20260506144603 17 207 6.4 11.3 0.00 0.00 0.00 92 1015.1
20260506144058 18 214 8.0 11.3 0.00 0.00 0.00 92 1015.2
20260506143558 18 219 6.4 11.3 0.00 0.00 0.00 93 1015.1
20260506143057 18 215 8.0 11.3 0.00 0.00 0.00 93 1015.1
20260506142558 18 221 6.4 11.3 0.00 0.00 0.00 93 1015.1
20260506142059 18 221 6.4 11.3 0.00 0.00 0.00 93 1015.1
20260506141600 18 221 6.4 11.3 0.00 0.00 0.00 93 1015.1
20260506141057 18 203 8.0 12.9 0.00 0.00 0.00 93 1015.1
20260506140556 18 213 8.0 12.9 0.00 0.00 0.00 93 1015.0
20260506140059 18 205 6.4 12.9 0.00 0.00 0.00 93 1015.1
20260506135557 18 214 8.0 12.9 0.00 0.00 0.00 94 1015.1
20260506135057 18 215 8.0 12.9 0.00 0.00 0.00 94 1015.0
20260506134557 18 210 8.0 12.9 0.00 0.00 0.00 94 1015.1
20260506134058 18 219 8.0 12.9 0.00 0.00 0.00 94 1015.2
20260506133558 18 224 8.0 12.9 0.00 0.00 0.00 94 1015.2
20260506133056 18 213 8.0 12.9 0.00 0.00 0.00 94 1015.2
20260506132557 18 207 8.0 12.9 0.00 0.00 0.00 94 1015.3
20260506132059 18 178 6.4 12.9 0.00 0.00 0.00 94 1015.4
20260506131607 18 208 6.4 11.3 0.00 0.00 0.00 94 1015.4
20260506131100 18 214 8.0 11.3 0.00 0.00 0.00 94 1015.5
20260506130558 18 203 6.4 9.7 0.00 0.00 0.00 94 1015.6
20260506130057 18 198 8.0 9.7 0.00 0.00 0.00 94 1015.5
20260506125557 18 208 6.4 9.7 0.00 0.00 0.00 94 1015.5